Wind_Speed
18 19 21 21 22 23 23 24 24 24 24 24 25 26 27 26 26 26 27 28 28 27 28 28 28 28 28 29 29 29 28 29 29 28 29 30 30 30 30 30 30 29 28
20 20 22 22 23 24 25 25 25 26 26 26 26 27 28 27 28 28 29 29 29 29 30 29 28 28 29 29 30 30 29 29 29 29 29 29 30 30 30 30 30 30 29
21 22 23 23 24 24 25 25 25 26 26 26 27 27 28 28 29 29 30 30 30 30 29 29 29 29 30 29 28 28 28 29 29 29 30 29 29 30 30 30 30 30 30
21 21 23 23 24 24 25 25 26 26 27 27 27 28 28 29 29 30 31 31 31 31 30 30 30 30 29 29 29 29 29 28 29 29 30 30 30 30 30 30 30 30 30
22 23 23 23 25 26 25 25 26 26 27 27 28 28 28 29 30 31 31 31 31 31 30 30 30 30 29 29 29 29 30 29 29 30 31 30 30 30 30 30 30 31 31
22 23 23 24 24 24 25 26 26 26 26 27 27 28 29 29 30 30 30 30 30 30 29 29 29 29 30 29 28 29 29 29 29 29 30 30 30 30 31 31 31 31 31
21 22 23 24 24 24 25 25 25 25 26 27 28 28 28 28 28 28 28 28 29 28 28 28 28 29 29 29 29 28 28 29 29 29 28 28 29 30 30 30 30 31 31
20 20 21 23 23 24 24 25 25 26 27 27 28 28 28 28 28 28 28 27 27 27 27 27 27 28 28 28 28 28 28 29 28 28 28 27 27 28 29 29 29 30 30
21 21 22 23 24 25 25 25 25 25 26 27 27 28 28 28 28 28 28 27 27 27 27 27 26 26 26 26 26 26 27 27 27 27 27 27 27 27 27 28 28 29 30
21 20 21 23 24 25 25 25 25 26 25 25 26 26 27 27 27 27 27 27 26 26 25 25 25 25 24 24 25 25 25 25 25 25 25 25 26 27 28 28 28 29 30
20 21 22 23 23 23 23 23 25 25 25 25 25 26 25 26 26 25 25 25 24 24 24 24 24 24 24 24 24 23 24 24 23 23 24 25 26 26 26 27 28 28 28
21 21 21 21 22 22 22 23 24 24 24 24 25 25 25 24 23 23 22 23 23 23 23 23 22 22 22 22 22 23 23 23 23 23 23 24 25 25 25 27 28 27 27
20 20 21 21 21 22 22 23 23 23 23 24 24 23 22 22 22 21 21 21 21 22 22 21 21 21 21 21 21 21 21 22 22 22 22 22 23 24 24 25 26 26 26
18 19 20 20 21 21 22 22 22 22 23 23 22 21 21 21 21 21 21 20 20 20 20 19 19 19 20 19 19 20 20 20 21 21 21 21 22 23 23 23 24 25 25
18 18 19 19 19 20 21 21 21 21 21 21 20 20 20 19 20 20 20 19 18 18 18 18 18 18 18 18 18 18 18 19 20 21 21 21 21 21 21 22 22 23 24
16 17 18 18 19 20 20 20 20 19 19 19 19 19 19 19 18 18 17 17 17 17 17 17 17 17 16 15 16 16 17 18 18 18 19 19 19 19 19 20 20 21 22
16 16 17 17 18 18 19 19 20 19 18 18 18 18 18 18 17 16 16 16 16 16 15 16 16 16 15 14 15 16 16 17 17 17 18 18 18 19 19 18 19 19 20
15 16 17 17 17 18 18 18 19 17 16 16 17 17 17 17 16 16 16 15 15 15 15 15 15 15 14 14 15 15 15 16 16 17 17 17 17 17 18 18 18 18 19
14 15 16 16 17 17 17 17 17 16 16 16 16 16 16 15 16 15 15 15 14 14 14 13 13 13 13 14 14 14 15 15 16 16 16 17 17 17 16 16 16 16 16
13 14 15 16 16 16 17 16 16 15 15 15 15 15 15 15 14 14 14 14 14 14 13 13 12 12 13 13 13 14 14 15 15 15 15 16 15 15 15 15 14 14 14
12 13 14 15 15 16 16 15 15 14 14 15 15 16 15 15 14 14 13 13 13 14 13 13 13 12 13 13 14 14 14 15 15 15 15 15 14 14 14 13 12 13 14
11 13 13 14 15 15 14 14 14 14 14 14 15 15 15 14 14 13 13 13 13 14 14 13 13 14 14 14 14 14 14 14 14 14 13 13 12 12 12 12 12 12 12
11 12 13 13 14 14 14 14 14 14 14 14 14 14 14 14 14 14 14 14 14 14 14 14 14 14 14 14 14 14 14 14 14 14 13 12 12 12 12 12 11 11 11
10 11 11 12 13 13 14 14 14 14 14 14 13 14 14 14 14 14 14 15 15 14 14 14 14 14 14 14 14 14 14 14 14 13 13 12 12 12 12 12 11 11 11
9 10 11 12 12 13 14 14 14 14 13 13 13 13 14 14 14 14 15 15 15 15 15 14 15 15 15 15 15 14 14 14 13 13 13 12 11 11 12 12 11 11 11
8 10 11 11 12 13 14 14 14 13 12 13 13 13 14 15 15 16 16 16 16 15 15 15 16 16 15 15 15 16 15 15 14 14 13 12 12 12 11 11 11 10 11
Wind_Direction
296 297 296 292 292 292 292 292 289 291 290 289 289 289 289 287 286 287 287 286 286 286 283 284 283 280 279 278 277 274 274 274 272 271 270 270 268 268 267 266 265 264 260
298 299 296 292 291 290 290 290 289 290 291 290 289 289 288 287 288 288 287 286 287 287 284 283 284 282 280 279 276 274 273 274 273 272 271 269 268 268 267 266 265 264 262
303 303 300 293 290 288 289 291 290 289 289 288 287 287 287 287 287 287 286 287 287 287 284 282 283 284 281 279 278 275 274 274 274 273 271 270 267 266 266 267 265 263 261
300 302 304 296 296 293 292 292 291 290 289 288 288 287 287 288 288 288 287 287 287 287 286 283 283 284 283 281 279 277 276 275 275 274 272 271 269 266 265 265 264 263 260
298 299 304 303 301 297 294 293 293 292 290 289 288 288 288 289 290 290 289 288 288 288 286 284 283 283 283 281 279 278 276 275 274 273 273 273 271 268 267 264 263 262 258
298 301 303 306 303 299 296 294 294 293 291 290 289 288 288 289 290 290 290 289 289 289 287 286 285 285 283 280 278 278 276 275 275 275 273 272 270 269 268 265 263 261 258
299 302 303 306 305 303 301 297 294 293 293 292 291 290 289 290 290 291 292 290 289 290 289 288 286 286 283 280 277 275 274 275 276 275 274 273 271 268 267 266 264 261 258
300 301 305 309 309 308 304 299 297 295 294 293 292 292 292 291 291 291 291 291 291 292 291 291 289 287 285 282 279 276 275 276 276 276 275 274 272 270 267 265 264 261 259
300 303 307 308 307 308 307 302 300 298 296 294 292 292 292 292 292 292 291 291 291 292 292 291 290 290 286 283 282 279 277 277 278 277 275 274 272 271 269 268 266 263 260
304 304 305 307 307 308 308 305 305 305 302 298 297 295 294 293 292 291 291 291 291 291 291 290 290 290 288 286 284 282 281 279 278 278 276 275 274 272 270 268 266 265 262
307 308 307 307 308 309 310 310 309 307 305 303 301 300 299 298 295 294 293 292 293 293 293 293 293 292 289 288 287 284 281 280 278 278 277 277 276 273 271 270 268 266 263
307 308 308 309 309 311 312 312 311 309 307 305 304 302 301 300 298 297 295 293 292 293 293 292 293 295 294 291 288 285 283 281 280 279 279 278 278 274 272 272 269 266 263
306 306 309 310 310 312 313 312 311 310 309 309 308 305 303 302 301 299 296 294 294 294 297 295 294 295 295 293 290 288 285 283 281 279 278 278 278 276 274 273 269 266 261
308 308 311 313 314 315 314 313 311 310 311 311 309 307 306 305 304 304 301 297 296 297 299 299 297 297 297 296 292 287 286 285 282 279 279 279 279 278 277 273 270 266 261
311 314 315 315 318 317 316 316 316 314 314 314 312 310 309 309 308 307 305 301 298 299 300 303 301 299 299 297 295 292 290 288 285 283 283 280 282 281 278 274 271 266 261
318 319 319 319 321 319 319 320 321 321 320 320 319 316 314 313 313 312 309 305 303 304 303 302 304 305 303 301 298 296 295 292 289 286 285 284 284 284 281 277 273 268 262
319 319 322 323 324 323 323 324 325 324 324 324 324 323 321 321 319 317 315 313 309 308 306 307 306 305 306 305 301 299 296 295 293 290 288 288 286 285 285 281 276 271 265
320 322 326 327 327 328 329 331 331 329 329 329 328 327 327 328 326 323 320 319 317 315 314 312 311 309 308 308 307 305 303 301 298 296 294 291 289 290 287 282 277 274 270
320 324 328 331 331 333 335 336 336 337 335 334 335 335 334 334 334 331 330 327 324 323 321 318 316 316 314 312 312 309 307 306 303 302 300 296 293 292 291 286 281 277 275
326 330 333 336 337 339 339 339 339 341 341 342 344 343 342 340 339 336 335 333 332 333 329 325 323 324 322 320 317 317 315 311 307 304 303 300 297 295 295 293 287 281 280
333 337 339 341 342 342 340 341 343 344 345 346 349 351 351 349 346 344 342 340 337 338 336 331 329 329 328 324 320 318 319 319 316 310 307 305 301 298 297 294 288 284 280
341 341 341 342 345 346 346 346 346 347 348 349 352 354 355 356 356 354 350 348 345 341 338 334 331 330 331 330 326 323 321 320 320 318 313 311 307 301 301 301 296 290 284
344 344 346 349 351 353 354 354 355 353 350 350 351 355 358 358 360 358 355 353 350 347 345 340 336 334 334 334 334 331 329 328 322 321 321 317 313 309 306 305 303 296 290
346 349 353 355 359 359 358 357 356 356 356 356 356 357 0 2 1 0 359 358 356 353 348 346 344 343 343 342 340 340 340 339 336 331 327 324 321 318 316 312 307 303 299
350 354 357 358 360 2 2 1 0 0 1 2 4 5 6 5 3 2 0 358 357 356 353 352 350 348 347 346 344 344 343 342 342 340 337 331 325 322 320 317 315 310 305
356 359 1 2 4 5 3 3 4 4 3 4 4 4 4 3 2 1 359 357 356 355 354 353 351 349 349 349 346 342 340 340 338 337 337 333 329 325 321 319 318 313 309
Height
5855 5853 5852 5851 5849 5848 5846 5845 5843 5841 5839 5838 5836 5834 5833 5831 5829 5828 5826 5824 5822 5820 5818 5816 5815 5813 5812 5811 5809 5808 5807 5807 5806 5806 5805 5805 5804 5803 5803 5802 5802 5802 5803
5850 5849 5847 5845 5844 5842 5840 5839 5837 5835 5833 5831 5830 5828 5826 5824 5823 5821 5819 5817 5815 5813 5811 5809 5807 5805 5804 5802 5801 5800 5799 5798 5797 5797 5796 5796 5796 5795 5795 5794 5794 5795 5795
5846 5845 5843 5840 5838 5836 5834 5832 5830 5829 5827 5825 5823 5821 5819 5817 5816 5813 5811 5809 5807 5804 5803 5801 5799 5797 5796 5794 5793 5792 5791 5790 5789 5788 5788 5787 5787 5787 5787 5786 5786 5786 5787
5841 5840 5837 5834 5831 5830 5828 5826 5824 5822 5820 5818 5816 5814 5812 5810 5808 5806 5803 5801 5799 5797 5794 5792 5790 5789 5787 5786 5785 5783 5782 5781 5780 5779 5778 5778 5778 5778 5779 5778 5778 5778 5778
5836 5834 5832 5830 5827 5824 5821 5819 5817 5815 5813 5811 5809 5807 5805 5803 5800 5798 5795 5793 5790 5788 5785 5784 5782 5780 5779 5777 5776 5775 5774 5772 5772 5771 5770 5769 5768 5768 5769 5770 5770 5770 5770
5831 5829 5827 5825 5821 5818 5816 5813 5811 5808 5806 5804 5802 5800 5798 5795 5793 5790 5787 5785 5783 5780 5778 5776 5774 5772 5770 5769 5768 5767 5765 5764 5763 5762 5761 5760 5760 5759 5759 5760 5760 5761 5761
5826 5824 5821 5819 5816 5813 5810 5807 5804 5802 5799 5797 5795 5792 5790 5788 5785 5782 5780 5777 5775 5772 5770 5768 5766 5764 5762 5760 5759 5758 5757 5756 5754 5753 5752 5751 5750 5750 5750 5750 5751 5751 5752
5821 5819 5816 5813 5810 5808 5805 5801 5798 5795 5793 5790 5787 5785 5782 5780 5777 5775 5772 5770 5767 5765 5763 5760 5758 5756 5754 5752 5751 5749 5748 5747 5746 5745 5744 5742 5742 5741 5741 5741 5741 5742 5743
5816 5813 5810 5808 5805 5802 5799 5795 5792 5789 5786 5783 5780 5778 5775 5772 5770 5767 5765 5762 5760 5758 5755 5753 5751 5748 5746 5744 5743 5741 5740 5739 5737 5736 5735 5734 5733 5733 5732 5732 5732 5733 5734
5811 5808 5806 5803 5800 5797 5793 5790 5785 5782 5779 5776 5774 5771 5768 5765 5762 5760 5758 5755 5753 5750 5748 5746 5743 5741 5739 5737 5735 5733 5732 5730 5729 5728 5727 5726 5725 5724 5724 5723 5723 5724 5724
5806 5804 5801 5798 5795 5791 5788 5784 5780 5777 5773 5770 5767 5764 5761 5758 5755 5753 5750 5748 5746 5743 5741 5739 5736 5734 5731 5729 5727 5726 5724 5723 5721 5720 5719 5718 5717 5716 5715 5715 5714 5714 5715
5801 5798 5795 5792 5789 5786 5782 5779 5775 5771 5768 5764 5761 5757 5754 5751 5749 5746 5744 5741 5739 5737 5734 5732 5729 5727 5724 5722 5720 5719 5717 5715 5714 5713 5712 5711 5709 5708 5707 5707 5706 5706 5706
5796 5793 5790 5788 5784 5781 5777 5774 5770 5766 5762 5759 5755 5751 5748 5745 5743 5740 5738 5735 5733 5731 5728 5726 5723 5721 5718 5716 5714 5712 5710 5709 5707 5706 5705 5703 5702 5701 5700 5699 5698 5697 5698
5791 5788 5785 5783 5779 5776 5772 5769 5765 5761 5757 5753 5750 5746 5743 5740 5737 5734 5731 5729 5727 5725 5722 5720 5718 5715 5713 5710 5708 5706 5704 5702 5701 5699 5698 5697 5695 5694 5692 5691 5690 5690 5689
5787 5784 5781 5778 5775 5771 5768 5764 5760 5756 5752 5749 5745 5742 5738 5735 5732 5729 5726 5724 5721 5719 5718 5715 5712 5710 5707 5705 5702 5700 5698 5697 5695 5693 5692 5690 5688 5687 5685 5684 5683 5682 5682
5783 5780 5777 5774 5770 5767 5764 5760 5756 5752 5748 5745 5741 5737 5734 5730 5727 5724 5721 5719 5717 5715 5713 5710 5707 5705 5702 5700 5698 5695 5693 5692 5690 5688 5686 5684 5682 5680 5679 5677 5676 5675 5675
5780 5777 5773 5770 5767 5763 5760 5756 5752 5748 5744 5741 5737 5733 5730 5726 5723 5721 5718 5715 5713 5710 5708 5706 5703 5701 5698 5696 5693 5691 5689 5687 5684 5682 5681 5679 5677 5674 5673 5671 5670 5669 5668
5776 5773 5770 5766 5763 5760 5756 5753 5749 5745 5741 5738 5734 5731 5727 5723 5720 5717 5714 5712 5709 5707 5704 5702 5699 5697 5695 5692 5690 5687 5685 5682 5680 5678 5676 5673 5671 5669 5667 5666 5665 5663 5662
5772 5770 5766 5763 5760 5757 5753 5749 5746 5742 5739 5735 5732 5728 5724 5721 5717 5714 5711 5709 5706 5703 5701 5698 5696 5694 5691 5689 5686 5684 5681 5679 5676 5673 5671 5669 5667 5665 5663 5661 5660 5658 5657
5769 5767 5764 5760 5757 5754 5750 5747 5744 5740 5737 5734 5730 5726 5722 5719 5715 5712 5709 5707 5704 5701 5698 5696 5693 5691 5688 5686 5683 5681 5678 5675 5672 5670 5667 5665 5663 5660 5659 5657 5655 5654 5653
5767 5764 5762 5759 5755 5752 5748 5745 5742 5739 5735 5732 5728 5725 5721 5717 5714 5711 5708 5705 5702 5699 5697 5694 5691 5689 5686 5683 5680 5678 5675 5672 5669 5666 5664 5661 5659 5657 5655 5653 5652 5650 5649
5765 5762 5760 5757 5754 5750 5747 5744 5740 5737 5734 5731 5727 5723 5720 5716 5713 5710 5707 5704 5701 5699 5696 5693 5690 5687 5684 5681 5678 5675 5672 5669 5666 5663 5661 5658 5656 5654 5652 5650 5649 5647 5646
5763 5761 5758 5756 5753 5749 5746 5743 5739 5736 5733 5730 5726 5723 5719 5716 5713 5710 5707 5704 5701 5697 5694 5691 5688 5685 5682 5679 5676 5672 5669 5666 5663 5661 5658 5656 5653 5651 5650 5648 5646 5644 5643
5762 5760 5757 5755 5752 5749 5745 5742 5739 5735 5732 5729 5726 5722 5719 5716 5713 5710 5707 5704 5700 5697 5694 5690 5687 5684 5680 5677 5674 5671 5667 5664 5661 5658 5656 5653 5651 5649 5647 5645 5643 5641 5640
5761 5759 5756 5754 5751 5748 5745 5741 5738 5735 5732 5729 5725 5722 5719 5716 5713 5710 5707 5704 5700 5696 5693 5689 5686 5683 5679 5676 5672 5669 5666 5663 5660 5657 5654 5651 5649 5647 5645 5643 5641 5639 5637
5760 5758 5755 5753 5750 5747 5744 5741 5738 5735 5732 5729 5726 5723 5720 5717 5713 5710 5707 5703 5700 5696 5692 5689 5685 5682 5678 5674 5671 5667 5664 5661 5658 5655 5652 5649 5647 5645 5642 5640 5638 5637 5635